Location: Meinert
(37.9441°N, 122.0275°W)
Time: 18:26:50
(UTC+00:00)

YAOGAN 11 - Pass Details

Date: 18 April 2024
Orbit: 606 x 659 km, 98.4° (Epoch: 23 May)

Event Time Altitude Azimuth Distance (km) Brightness Sun altitude
Rises 12:50:01 0° 166° (SSE) 2,946 7.5 -7.9°
Reaches altitude 10° 12:52:12 10° 167° (SSE) 2,047 6.7 -7.5°
Maximum altitude 12:56:41 86° 256° (WSW) 662 4.2 -6.7°
Drops below altitude 10° 13:01:14 10° 346° (NNW) 2,080 6.8 -5.8°
Sets 13:03:29 0° 347° (NNW) 2,998 7.7 -5.4°
